Weather in Kovylkin

Russia / Rostov Oblast     48°14′41″N   41°28′30″E
temp.,
°C
wind,
m/s
gust,
m/s
humid.,
%
clouds,
%
prec.,
mm/h
press.,
hPa
HPBL,
m
5 march, fri
fri500:00+2sw9188148 0.0 1013642
03:00+2sw9188557 0.0 1013637
06:00+2wsw9188773 0.0 1012673
09:00+3wsw9158583 0.0 1012733
12:00+5wsw81279100 0.0 1012885
15:00+5wsw71285100 0.1 1013693
18:00+4wsw4995100 0.8 1014395
21:00+4sw41187100 1.1 1015421
6 march, sat
sat600:00+3sw3892100 0.3 1014281
03:00+3wsw3795100 0.7 1015292
06:00+2ne1299100 1.6 101372
09:00+3nne0199100 4.0 101366
12:00+2n4597100 1.7 1012211
15:00+1nne4698100 2.6 1011242
18:000n71197100 1.8 1011615
21:00−1nnw71194100 2.9 1014679
7 march, sun
sun700:00−3nw81281100 0.6 1017782
03:00−5nw7128567 0.6 1020611
06:00−5wnw5108146 0.0 1022615
09:00−4wnw586922 0.0 1023751
12:00−1w68560 0.0 10211284
15:00+1wsw811500 0.0 10201574
18:000sw7136496 0.0 1017826
21:00−1wsw9166978 0.0 1017903
8 march, mon
mon800:00−1wsw815661 0.0 1015912
03:00−1wsw8156915 0.0 1015750
06:00−1wsw8156955 0.0 1013637
09:00+1wsw10156465 0.0 10131269
12:00+4wsw111750100 0.0 10121935
15:00+5wsw111757100 0.1 10112101
18:00+2wsw51279100 0.2 1012647
21:000wsw479199 0.3 1014176
9 march, tue
tue900:00−1nnw1197100 0.2 101445
03:00−1e3596100 0.4 1014263
06:00−1ese3397100 0.6 1013145
09:00+1sw61197100 1.7 1012668
12:00+3wsw6983100 0.6 1011944
15:00+2nw5783100 1.2 1011712
18:00−1n6990100 0.6 1011548
21:00−3n588799 0.6 1014643